CW6682 Weather Reports


Display with metric or nautical units.
time (UTC)temp
F
wind
direction
speed
MPH
gust
MPH
rain 1hr
in
rain 24hr
in
rain mn
in
humidity
%
barometer
mb
20260503211515 92 179 11.0 0.0 0.00 0.00 0.00 15 1005.3
20260503210014 91 199 7.0 0.0 0.00 0.00 0.00 16 1005.5
20260503204513 91 239 8.0 0.0 0.00 0.00 0.00 16 1005.8
20260503203032 91 149 10.0 0.0 0.00 0.00 0.00 17 1005.9
20260503201510 90 177 10.0 0.0 0.00 0.00 0.00 17 1006.1
20260503200012 90 171 10.0 0.0 0.00 0.00 0.00 17 1006.3
20260503194507 89 196 7.0 0.0 0.00 0.00 0.00 19 1006.5
20260503193004 89 190 7.0 0.0 0.00 0.00 0.00 21 1007.0
20260503191503 89 134 8.0 0.0 0.00 0.00 0.00 22 1007.0
20260503190110 88 184 7.0 0.0 0.00 0.00 0.00 23 1007.2
20260503184604 87 142 9.0 0.0 0.00 0.00 0.00 23 1007.6
20260503183056 87 147 9.0 0.0 0.00 0.00 0.00 22 1007.8
20260503181600 87 146 8.0 0.0 0.00 0.00 0.00 21 1008.0
20260503180054 86 159 9.0 0.0 0.00 0.00 0.00 22 1008.2
20260503174550 86 146 8.0 0.0 0.00 0.00 0.00 21 1008.2
20260503173048 85 188 9.0 0.0 0.00 0.00 0.00 23 1008.2
20260503171545 85 138 10.0 0.0 0.00 0.00 0.00 23 1008.3
20260503081536 75 121 0.0 0.0 0.00 0.00 0.00 24 1007.7
20260503071526 76 121 2.0 0.0 0.00 0.00 0.00 23 1007.7
20260503054526 79 121 1.0 0.0 0.00 0.00 0.00 21 1007.2
20260503053032 79 121 1.0 0.0 0.00 0.00 0.00 21 1007.2
20260503051517 79 121 0.0 0.0 0.00 0.00 0.00 21 1007.1
20260503050017 79 121 0.0 0.0 0.00 0.00 0.00 22 1007.2
20260503044517 79 121 0.0 0.0 0.00 0.00 0.00 22 1006.8
20260503043024 80 121 0.0 0.0 0.00 0.00 0.00 22 1006.6
20260503041516 82 121 0.0 0.0 0.00 0.00 0.00 19 1006.5
20260503040026 82 121 0.0 0.0 0.00 0.00 0.00 19 1006.3
20260503034515 83 121 0.0 0.0 0.00 0.00 0.00 19 1006.1
20260503033014 83 121 0.0 0.0 0.00 0.00 0.00 18 1006.0
20260503031514 84 121 0.0 0.0 0.00 0.00 0.00 18 1005.9
20260503030013 85 121 0.0 0.0 0.00 0.00 0.00 16 1006.0
20260503024514 86 121 0.0 0.0 0.00 0.00 0.00 16 1005.9
20260503023013 87 121 0.0 0.0 0.00 0.00 0.00 15 1005.7
20260503021512 87 121 0.0 0.0 0.00 0.00 0.00 14 1005.8
20260503020012 88 121 3.0 0.0 0.00 0.00 0.00 14 1006.1
20260503014514 88 121 3.0 0.0 0.00 0.00 0.00 13 1006.1
20260503013010 89 121 2.0 0.0 0.00 0.00 0.00 13 1006.2
20260503011515 89 121 3.0 0.0 0.00 0.00 0.00 13 1006.2
20260503010009 90 121 1.0 0.0 0.00 0.00 0.00 13 1006.4
20260503004509 90 121 3.0 0.0 0.00 0.00 0.00 14 1006.5
20260503003008 90 115 1.0 0.0 0.00 0.00 0.00 14 1006.4
20260503001507 89 119 5.0 0.0 0.00 0.00 0.00 13 1006.5
20260503000007 90 122 2.0 0.0 0.00 0.00 0.00 13 1006.5
20260502234512 89 121 4.0 0.0 0.00 0.00 0.00 13 1006.7
20260502233004 90 184 4.0 0.0 0.00 0.00 0.00 14 1006.7
20260502231504 89 315 5.0 0.0 0.00 0.00 0.00 14 1006.8
20260502230004 89 271 5.0 0.0 0.00 0.00 0.00 14 1006.9
20260502224503 89 253 5.0 0.0 0.00 0.00 0.00 14 1007.0
20260502223002 90 232 8.0 0.0 0.00 0.00 0.00 15 1006.8
20260502221602 90 118 3.0 0.0 0.00 0.00 0.00 14 1007.3
20260502220058 88 51 3.0 0.0 0.00 0.00 0.00 15 1007.8
20260502214557 89 99 4.0 0.0 0.00 0.00 0.00 15 1007.8
20260502213106 89 157 5.0 0.0 0.00 0.00 0.00 15 1008.0